Location: Riverside Cemetery
(38.3047°N, 99.7773°W)
Time: 18:34:19
(UTC+00:00)

Cosmos 1459 Rocket - Pass Details

Date: 19 September 2020
Orbit: 936 x 1001 km, 83.0° (Epoch: 21 October)

Event Time Altitude Azimuth Distance (km) Brightness Sun altitude
Rises 11:20:45 0° 354° (N) 3,628 7.1 -13.3°
Reaches altitude 10° 11:23:16 10° 355° (N) 2,672 6.4 -12.8°
Maximum altitude 11:29:22 82° 83° (E) 953 4.1 -11.6°
Drops below altitude 10° 11:35:23 10° 171° (S) 2,637 6.3 -10.5°
Sets 11:37:51 0° 173° (S) 3,578 6.9 -10.0°
